map of BFN home
Great Circle Mapper logo
BFN - Airport
Location
City:  Bloemfontein, South Africa
Name:J.B.M. Hertzog
ICAO / IATA:FABL / BFN

Details
Type:Airport (Aerodrome, Airfield)
Use:Public/Civil, Military, International (customs port of entry)
Latitude:2905'34"S (-29.092721)
Longitude:2618'09"E (26.302444)
Datum:WGS 1984
Elevation:4458 ft (1359 m)
Variation:22.0W (WMM2010 magnetic declination)
Runways:2
Longest:8396 × 151 ft (2559 × 46 m), paved

Time
Time Zone:UTC+2
Local Time:

Weather
METAR:FABL 231800Z 08002KT 9999 FEW040CB 17/12 Q1021 NOSIG
TAF:FABL 222200Z 2300/2324 27010KT 9999 SCT050
TEMPO 2300/2315 5000 TSRA BKN020 SCT030CB TX25/2312ZTN14/2305Z

Related Locations
Nearby:
Farthest:LUP: 11852 mi / 19074 km
Kalaupapa, Molokai, HI, US

Find:

   beyond  
but within

Other Information
Maps:
NOTAMs:
Links:
Sources:

  
flag of South Africa   

Sectional Chart

Flight Planning
at skyvector.com

Satellite Image

Google Maps Satellite View

 

Copyright © 2004-2014 Karl L. Swartz. All rights reserved.
The Great Circle Mapper name and logo are trademarks of the Great Circle Mapper.
All other trademarks mentioned herein belong to their respective owners.
Please see credits for attibutions and further copyright information.

  Follow gcmap on Facebook Follow gcmap on Twitter

hCard Microformat

Geo Microformat